Location: Unspecified
(47.7670°N, 8.8522°E)
Time: 02:28:42
(UTC+01:00)

Tiangong - Pass Details

Date: 08 December 2022
Orbit: 383 x 386 km, 41.5° (Epoch: 03 February)

Event Time Altitude Azimuth Distance (km) Brightness Sun altitude
Rises 18:24:50 0° 261° (W) 2,252 3.5 -18.0°
Reaches altitude 10° 18:27:18 10° 242° (WSW) 1,398 1.9 -18.4°
Maximum altitude 18:29:35 19° 195° (SSW) 1,000 0.3 -18.8°
Enters shadow 18:30:57 15° 163° (SSE) 1,157 0.2 -19.0°
